| time (UTC) | temp C | wind direction | speed KPH | gust KPH | rain 1hr cm | rain 24hr cm | rain mn cm | humidity % | barometer mb |
| 20260504050003 | 8 | 0 | 0.0 | 1.6 | 0.00 | 0.00 | 0.00 | 54 | 1016.2 |
| 20260504045403 | 8 | 0 | 0.0 | 1.6 | 0.00 | 0.00 | 0.00 | 52 | 1016.2 |
| 20260504044503 | 8 | 0 | 0.0 | 1.6 | 0.00 | 0.00 | 0.00 | 51 | 1016.2 |
| 20260504043603 | 9 | 0 | 0.0 | 1.6 | 0.00 | 0.00 | 0.00 | 50 | 1016.1 |
| 20260504042703 | 10 | 229 | 1.6 | 3.2 | 0.00 | 0.00 | 0.00 | 48 | 1016.1 |
| 20260504041803 | 10 | 229 | 1.6 | 3.2 | 0.00 | 0.00 | 0.00 | 47 | 1016.1 |
| 20260504041121 | 10 | 224 | 1.6 | 3.2 | 0.00 | 0.00 | 0.00 | 48 | 1016.1 |
| 20260504040004 | 10 | 210 | 1.6 | 3.2 | 0.00 | 0.00 | 0.00 | 48 | 1016.1 |
| 20260504035620 | 10 | 215 | 1.6 | 3.2 | 0.00 | 0.00 | 0.00 | 48 | 1016.1 |
| 20260504034503 | 10 | 208 | 1.6 | 1.6 | 0.00 | 0.00 | 0.00 | 47 | 1016.1 |
| 20260504033603 | 10 | 232 | 1.6 | 3.2 | 0.00 | 0.00 | 0.00 | 47 | 1016.0 |
| 20260504032703 | 10 | 270 | 1.6 | 1.6 | 0.00 | 0.00 | 0.00 | 46 | 1015.9 |
| 20260504031803 | 10 | 0 | 0.0 | 1.6 | 0.00 | 0.00 | 0.00 | 46 | 1015.9 |
| 20260504030903 | 10 | 0 | 0.0 | 1.6 | 0.00 | 0.00 | 0.00 | 46 | 1016.0 |
| 20260504030003 | 10 | 0 | 0.0 | 1.6 | 0.00 | 0.00 | 0.00 | 46 | 1015.9 |
| 20260504025403 | 10 | 0 | 0.0 | 0.0 | 0.00 | 0.00 | 0.00 | 46 | 1015.9 |
| 20260504024503 | 10 | 0 | 0.0 | 1.6 | 0.00 | 0.00 | 0.00 | 46 | 1015.8 |
| 20260504023603 | 11 | 0 | 0.0 | 1.6 | 0.00 | 0.00 | 0.00 | 48 | 1015.7 |
| 20260504022703 | 11 | 0 | 0.0 | 1.6 | 0.00 | 0.00 | 0.00 | 43 | 1015.6 |
| 20260504021803 | 11 | 271 | 1.6 | 1.6 | 0.00 | 0.00 | 0.00 | 43 | 1015.7 |
| 20260504020903 | 11 | 279 | 1.6 | 1.6 | 0.00 | 0.00 | 0.00 | 42 | 1015.6 |
| 20260504020004 | 11 | 0 | 0.0 | 1.6 | 0.00 | 0.00 | 0.00 | 42 | 1015.5 |
| 20260504015621 | 11 | 0 | 0.0 | 1.6 | 0.00 | 0.00 | 0.00 | 42 | 1015.4 |
| 20260504014503 | 11 | 0 | 0.0 | 0.0 | 0.00 | 0.00 | 0.00 | 42 | 1015.4 |
| 20260504013603 | 11 | 0 | 0.0 | 0.0 | 0.00 | 0.00 | 0.00 | 43 | 1015.5 |
| 20260504012703 | 11 | 0 | 0.0 | 0.0 | 0.00 | 0.00 | 0.00 | 43 | 1015.4 |
| 20260504011803 | 11 | 0 | 0.0 | 0.0 | 0.00 | 0.00 | 0.00 | 42 | 1015.3 |
| 20260504010903 | 11 | 0 | 0.0 | 0.0 | 0.00 | 0.00 | 0.00 | 41 | 1015.2 |
| 20260504010003 | 12 | 0 | 0.0 | 1.6 | 0.00 | 0.00 | 0.00 | 40 | 1015.3 |
| 20260504005403 | 12 | 0 | 0.0 | 1.6 | 0.00 | 0.00 | 0.00 | 40 | 1015.3 |
| 20260504004503 | 11 | 0 | 0.0 | 0.0 | 0.00 | 0.00 | 0.00 | 40 | 1015.3 |
| 20260504003821 | 12 | 0 | 0.0 | 0.0 | 0.00 | 0.00 | 0.00 | 40 | 1015.3 |
| 20260504002703 | 12 | 0 | 0.0 | 1.6 | 0.00 | 0.00 | 0.00 | 39 | 1015.1 |
| 20260504001803 | 12 | 0 | 0.0 | 1.6 | 0.00 | 0.00 | 0.00 | 39 | 1015.1 |
| 20260504000903 | 13 | 0 | 0.0 | 1.6 | 0.00 | 0.00 | 0.00 | 39 | 1014.9 |
| 20260504000004 | 13 | 0 | 0.0 | 1.6 | 0.00 | 0.00 | 0.00 | 38 | 1014.8 |
| 20260503235403 | 13 | 0 | 0.0 | 1.6 | 0.00 | 0.00 | 0.00 | 39 | 1014.8 |
| 20260503234503 | 13 | 0 | 0.0 | 1.6 | 0.00 | 0.00 | 0.00 | 38 | 1014.8 |
| 20260503233603 | 14 | 0 | 0.0 | 1.6 | 0.00 | 0.00 | 0.00 | 37 | 1014.7 |
| 20260503232703 | 14 | 0 | 0.0 | 3.2 | 0.00 | 0.00 | 0.00 | 36 | 1014.6 |
| 20260503231803 | 15 | 0 | 0.0 | 3.2 | 0.00 | 0.00 | 0.00 | 35 | 1014.6 |
| 20260503230903 | 15 | 0 | 0.0 | 3.2 | 0.00 | 0.00 | 0.00 | 35 | 1014.5 |
| 20260503230003 | 15 | 0 | 0.0 | 3.2 | 0.00 | 0.00 | 0.00 | 34 | 1014.5 |
| 20260503225618 | 15 | 0 | 0.0 | 3.2 | 0.00 | 0.00 | 0.00 | 34 | 1014.6 |
| 20260503224503 | 16 | 265 | 1.6 | 3.2 | 0.00 | 0.00 | 0.00 | 33 | 1014.4 |
| 20260503223603 | 15 | 267 | 1.6 | 4.8 | 0.00 | 0.00 | 0.00 | 32 | 1014.5 |
| 20260503222703 | 16 | 0 | 0.0 | 6.4 | 0.00 | 0.00 | 0.00 | 32 | 1014.5 |
| 20260503222017 | 16 | 0 | 0.0 | 3.2 | 0.00 | 0.00 | 0.00 | 34 | 1014.5 |
| 20260503220903 | 16 | 258 | 1.6 | 6.4 | 0.00 | 0.00 | 0.00 | 33 | 1014.6 |
| 20260503220003 | 16 | 248 | 1.6 | 6.4 | 0.00 | 0.00 | 0.00 | 32 | 1014.6 |
| 20260503215403 | 16 | 201 | 1.6 | 8.0 | 0.00 | 0.00 | 0.00 | 32 | 1014.6 |
| 20260503214503 | 17 | 132 | 3.2 | 11.3 | 0.00 | 0.00 | 0.00 | 32 | 1014.5 |
| 20260503213818 | 17 | 145 | 1.6 | 8.0 | 0.00 | 0.00 | 0.00 | 29 | 1014.6 |
| 20260503212703 | 18 | 283 | 1.6 | 6.4 | 0.00 | 0.00 | 0.00 | 30 | 1014.5 |
| 20260503212018 | 17 | 323 | 1.6 | 8.0 | 0.00 | 0.00 | 0.00 | 29 | 1014.7 |
| 20260503210903 | 17 | 344 | 1.6 | 4.8 | 0.00 | 0.00 | 0.00 | 28 | 1014.7 |
| 20260503210217 | 17 | 178 | 1.6 | 4.8 | 0.00 | 0.00 | 0.00 | 28 | 1014.7 |
| 20260503205403 | 17 | 340 | 1.6 | 4.8 | 0.00 | 0.00 | 0.00 | 28 | 1014.8 |
| 20260503204503 | 17 | 307 | 3.2 | 6.4 | 0.00 | 0.00 | 0.00 | 29 | 1014.7 |
| 20260503203603 | 17 | 258 | 1.6 | 4.8 | 0.00 | 0.00 | 0.00 | 28 | 1014.6 |
| 20260503202921 | 17 | 321 | 1.6 | 4.8 | 0.00 | 0.00 | 0.00 | 30 | 1014.9 |
| 20260503201803 | 18 | 286 | 3.2 | 6.4 | 0.00 | 0.00 | 0.00 | 27 | 1014.9 |
| 20260503200903 | 19 | 1 | 1.6 | 6.4 | 0.00 | 0.00 | 0.00 | 26 | 1015.1 |
| 20260503200003 | 19 | 65 | 1.6 | 4.8 | 0.00 | 0.00 | 0.00 | 28 | 1015.0 |
| 20260503195620 | 18 | 257 | 1.6 | 8.0 | 0.00 | 0.00 | 0.00 | 29 | 1015.1 |
| 20260503194503 | 18 | 264 | 1.6 | 8.0 | 0.00 | 0.00 | 0.00 | 26 | 1015.2 |
| 20260503193603 | 18 | 240 | 1.6 | 6.4 | 0.00 | 0.00 | 0.00 | 29 | 1015.5 |
| 20260503192917 | 18 | 266 | 3.2 | 6.4 | 0.00 | 0.00 | 0.00 | 28 | 1015.5 |
| 20260503192019 | 18 | 278 | 3.2 | 8.0 | 0.00 | 0.00 | 0.00 | 28 | 1015.6 |
| 20260503191122 | 17 | 268 | 1.6 | 9.7 | 0.00 | 0.00 | 0.00 | 28 | 1015.7 |
| 20260503190219 | 18 | 233 | 1.6 | 4.8 | 0.00 | 0.00 | 0.00 | 26 | 1015.7 |
| 20260503185403 | 17 | 246 | 1.6 | 6.4 | 0.00 | 0.00 | 0.00 | 28 | 1015.7 |
| 20260503184503 | 18 | 127 | 1.6 | 4.8 | 0.00 | 0.00 | 0.00 | 27 | 1016.0 |
| 20260503183820 | 17 | 280 | 3.2 | 9.7 | 0.00 | 0.00 | 0.00 | 27 | 1016.1 |
| 20260503182704 | 17 | 260 | 1.6 | 6.4 | 0.00 | 0.00 | 0.00 | 27 | 1016.2 |
| 20260503181803 | 17 | 266 | 3.2 | 9.7 | 0.00 | 0.00 | 0.00 | 28 | 1016.1 |
| 20260503180903 | 17 | 261 | 3.2 | 9.7 | 0.00 | 0.00 | 0.00 | 28 | 1016.1 |
| 20260503180004 | 17 | 276 | 3.2 | 8.0 | 0.00 | 0.00 | 0.00 | 28 | 1016.2 |
| 20260503175403 | 17 | 312 | 3.2 | 9.7 | 0.00 | 0.00 | 0.00 | 28 | 1016.2 |
| 20260503174503 | 17 | 276 | 1.6 | 9.7 | 0.00 | 0.00 | 0.00 | 27 | 1016.4 |
| 20260503173603 | 17 | 298 | 1.6 | 6.4 | 0.00 | 0.00 | 0.00 | 31 | 1016.6 |
| 20260503172703 | 16 | 305 | 1.6 | 6.4 | 0.00 | 0.00 | 0.00 | 29 | 1016.7 |
| 20260503171803 | 17 | 270 | 1.6 | 8.0 | 0.00 | 0.00 | 0.00 | 31 | 1016.8 |
| 20260503170903 | 16 | 291 | 1.6 | 8.0 | 0.00 | 0.00 | 0.00 | 29 | 1016.7 |
| 20260503150903 | 12 | 273 | 3.2 | 8.0 | 0.00 | 0.00 | 0.00 | 43 | 1017.8 |
| 20260503150221 | 12 | 291 | 3.2 | 8.0 | 0.00 | 0.00 | 0.00 | 45 | 1017.8 |
| 20260503130903 | 6 | 0 | 0.0 | 6.4 | 0.00 | 0.00 | 0.00 | 61 | 1018.2 |
| 20260503120218 | 3 | 0 | 0.0 | 0.0 | 0.00 | 0.00 | 0.00 | 73 | 1017.9 |
| 20260503080903 | 3 | 0 | 0.0 | 0.0 | 0.00 | 0.00 | 0.00 | 76 | 1015.8 |
| 20260503072703 | 3 | 0 | 0.0 | 0.0 | 0.00 | 0.00 | 0.00 | 82 | 1015.5 |